Home > Weather > Bern > Past weeks

Flag for Switzerland Weather for the Past 2 Weeks in Bern, Bern, Switzerland

Now
43 °F

Broken clouds.


Feels Like: 43 °F
Forecast: 31 / 39 °F
Wind: No wind

Location: Bern / Belp

Current Time: Feb 14, 2016 at 10:09:35 AM

Latest Report: Feb 14, 2016 at 9:20 AM


Visibility: N/A

Pressure: 29.12 "Hg (27.28 "Hg at 533m altitude)

Humidity: 87%

Dew point: 39 °F

Location of BernLocation

Historic Weather in Bern — Graph

°F

Bern Temperature Yesterday

Maximum temperature yesterday: 48 °F (at 8:20 PM)
Minimum temperature yesterday: 34 °F (at 12:20 AM)
Average temperature yesterday: 41 °F

High & Low Weather Summary for the Past Weeks

 TemperatureHumidityPressure
High59 °F (Feb 1, 11:50 AM)100% (Jan 30, 8:20 AM)30.48 "Hg (Jan 30, 8:20 AM)
Low25 °F (Feb 11, 7:20 AM)50% (Feb 9, 3:50 AM)29.12 "Hg (Feb 14, 8:20 AM)
Average41 °F84%29.92 "Hg
* Reported Jan 30 8:20 AM — Feb 14 8:20 AM, Bern, Weather by CustomWeather, © 2016

Note: Actual official high and low records may vary slightly from our data, if they occured in-between our weather recording intervals... More about our weather records

Advertising

Bern Weather History for the Previous 24 Hours

 ConditionsComfort  
Time TempWeatherWind HumidityBarometerVisibility
8:20 AM
Sun, Feb 14
39 °FPartly sunny.2 mph93%29.12 "HgN/A
7:50 AM39 °FPartly sunny.3 mph93%29.15 "HgN/A
7:20 AM39 °FPassing clouds.7 mph93%29.15 "HgN/A
6:50 AM39 °FPartly cloudy.6 mph93%29.15 "HgN/A
6:20 AM39 °FPassing clouds.7 mph87%29.18 "HgN/A
5:50 AM39 °FPassing clouds.3 mph87%29.18 "HgN/A
5:20 AM37 °FPassing clouds.3 mph93%29.18 "HgN/A
4:50 AM39 °FPassing clouds.5 mph87%29.18 "HgN/A
4:20 AM41 °FPassing clouds.6 mph81%29.18 "HgN/A
3:50 AM41 °FPassing clouds.2 mph81%29.21 "HgN/A
3:20 AM46 °FPassing clouds.6 mph66%29.21 "HgN/A
2:20 AM46 °FPassing clouds.3 mph71%29.24 "HgN/A
1:50 AM46 °FPartly cloudy.9 mph71%29.24 "HgN/A
1:20 AM46 °FPassing clouds.3 mph71%29.27 "HgN/A
12:50 AM46 °FPassing clouds.13 mph71%29.24 "HgN/A
12:20 AM46 °FPassing clouds.14 mph71%29.27 "HgN/A
11:50 PM
Sat, Feb 13
48 °FPassing clouds.10 mph62%29.27 "HgN/A
11:20 PM46 °FPassing clouds.10 mph71%29.27 "HgN/A
10:50 PM46 °FPassing clouds.14 mph71%29.27 "HgN/A
10:20 PM46 °FLight rain. Passing clouds.10 mph76%29.27 "HgN/A
9:50 PM46 °FLight rain. Passing clouds.13 mph71%29.24 "HgN/A
9:20 PM48 °FPassing clouds.13 mph62%29.24 "HgN/A
8:50 PM48 °FPassing clouds.12 mph66%29.24 "HgN/A
8:20 PM48 °FSprinkles. Passing clouds.13 mph66%29.24 "HgN/A
7:50 PM46 °FPassing clouds.13 mph71%29.24 "HgN/A
7:20 PM46 °FPassing clouds.16 mph71%29.24 "HgN/A
6:50 PM45 °FPartly cloudy.13 mph76%29.27 "HgN/A
6:20 PM43 °FPartly cloudy.14 mph81%29.27 "HgN/A
5:50 PM41 °FSprinkles. Passing clouds.7 mph87%29.24 "HgN/A
5:20 PM41 °FLight rain. Partly sunny.14 mph87%29.27 "HgN/A
4:50 PM43 °FMixture of precip. Partly sunny.10 mph93%29.27 "Hg4 mi
4:20 PM41 °FPartly sunny.3 mph100%29.21 "HgN/A
3:50 PM43 °FDrizzle. Partly sunny.8 mph87%29.21 "HgN/A
3:20 PM43 °FScattered showers. Partly sunny.3 mph81%29.18 "HgN/A
2:50 PM45 °FBroken clouds.2 mph76%29.21 "HgN/A
2:20 PM45 °FPartly sunny.10 mph81%29.24 "HgN/A
1:50 PM45 °FPartly sunny.5 mph76%29.27 "HgN/A
1:20 PM45 °FPartly sunny.3 mph76%29.27 "HgN/A
12:50 PM45 °FPartly sunny.2 mph76%29.30 "HgN/A
12:20 PM41 °FPartly sunny.No wind87%29.30 "HgN/A
11:50 AM39 °FBroken clouds.2 mph93%29.33 "HgN/A
11:20 AM39 °FSprinkles. Broken clouds.7 mph100%29.33 "HgN/A
10:50 AM37 °FBroken clouds.5 mph100%29.36 "HgN/A
10:20 AM39 °FLight rain. Broken clouds.9 mph93%29.36 "HgN/A
Weather by CustomWeather, © 2016

See weather overviewHow to use our weather pages